Weather reports worldwide

Advertisment
Lecce, Italy (16332): temperature & dewpoint: 20.10.2020 22:00:00 - 26.10.2020 22:00:00 (CET)Lecce, Italy (16332): wind speed: 20.10.2020 22:00:00 - 26.10.2020 22:00:00 (CET)Lecce, Italy (16332): wind direction: 20.10.2020 22:00:00 - 26.10.2020 22:00:00 (CET)Lecce, Italy (16332): reduced air pressure: 20.10.2020 22:00:00 - 26.10.2020 22:00:00 (CET)Lecce, Italy (16332): visibility: 20.10.2020 22:00:00 - 26.10.2020 22:00:00 (CET)
Date & Time tt [°C] td [°C] ff [km/h] ff [kn] dd ppp [hPa] vv [km]
26.10.2020 22:00:00 15,2 14,7 8 4 SE 1014,7 10
26.10.2020 21:00:00 16,0 15,0 9 5 SE - 10
26.10.2020 20:00:00 16,0 16,0 9 5 SE - 10
26.10.2020 19:00:00 17,8 16,3 9 5 SE 1014,7 10
26.10.2020 18:00:00 18,0 16,0 13 7 SSE - 10
26.10.2020 17:00:00 20,0 16,0 15 8 SSE - 10
26.10.2020 16:00:00 21,8 14,9 18 10 S 1014,7 10
26.10.2020 15:00:00 22,0 14,0 15 8 SSW - 10
26.10.2020 14:00:00 23,0 14,0 15 8 SW - 10
26.10.2020 13:00:00 22,8 13,3 8 4 SW 1015,1 10
26.10.2020 12:00:00 22,0 13,0 15 8 WSW - 10
26.10.2020 11:00:00 21,0 13,0 9 5 SW - 10
26.10.2020 10:00:00 20,2 12,7 11 6 WSW 1016,4 10
26.10.2020 09:00:00 19,0 15,0 11 6 SW - 10
26.10.2020 08:00:00 15,0 14,0 5 3 SSE - 10
26.10.2020 07:00:00 12,0 11,7 8 4 ESE 1016,2 10
26.10.2020 06:00:00 12,0 12,0 5 3 SE - 10
26.10.2020 05:00:00 11,0 11,0 8 4 ESE - 10
26.10.2020 04:00:00 11,4 11,1 5 3 ESE 1016,4 10
26.10.2020 03:00:00 12,0 12,0 5 3 SE - 10
26.10.2020 02:00:00 12,0 12,0 5 3 ESE - 10
26.10.2020 01:00:00 12,2 11,7 5 3 E 1017,1 10
26.10.2020 00:00:00 12,0 12,0 4 2 SSE - 10
25.10.2020 23:00:00 12,0 12,0 5 3 S - 10
25.10.2020 22:00:00 12,8 12,3 4 2 NE 1016,9 10
25.10.2020 21:00:00 14,0 13,0 4 2 SE - 10
25.10.2020 20:00:00 14,0 13,0 5 3 SSE - 10
25.10.2020 19:00:00 16,0 14,5 2 1 SSE 1016,4 10
25.10.2020 18:00:00 17,0 15,0 4 2 E - 10
25.10.2020 17:00:00 18,0 15,0 8 4 NE - 10
25.10.2020 16:00:00 18,4 14,1 8 4 NE 1015,6 10
25.10.2020 15:00:00 19,0 14,0 11 6 NNE - 10
25.10.2020 14:00:00 20,0 12,0 8 4 NW - 10
25.10.2020 13:00:00 20,2 11,7 11 6 NNW 1015,6 10
25.10.2020 12:00:00 20,0 11,0 11 6 NW - 10
25.10.2020 11:00:00 20,0 11,0 16 9 NW - 10
25.10.2020 10:00:00 19,8 11,8 16 9 WNW 1016,2 10
25.10.2020 09:00:00 18,0 15,0 13 7 W - 10
25.10.2020 08:00:00 15,0 15,0 2 1 - - 10
25.10.2020 07:00:00 12,2 11,7 4 2 N 1015,9 10
25.10.2020 06:00:00 12,0 12,0 4 2 - - 10
25.10.2020 05:00:00 13,0 12,0 4 2 W - 10
25.10.2020 04:00:00 13,2 12,6 5 3 S 1015,6 10
25.10.2020 03:00:00 14,0 14,0 4 2 SSW - 10
25.10.2020 02:00:00 15,0 14,0 8 4 S - 10
25.10.2020 01:00:00 - - - - - - -
25.10.2020 00:00:00 16,0 15,0 8 4 N - 8
24.10.2020 23:00:00 16,0 16,0 15 8 NNW - 10
24.10.2020 22:00:00 16,0 15,5 11 6 NNW 1017,1 10
24.10.2020 21:00:00 16,0 15,0 4 2 - - 10
24.10.2020 20:00:00 16,0 15,0 2 1 - - 10
24.10.2020 19:00:00 17,0 16,0 4 2 N 1016,8 10
24.10.2020 18:00:00 18,0 16,0 2 1 - - 10
24.10.2020 17:00:00 19,0 16,0 2 1 - - 10
24.10.2020 16:00:00 21,0 15,8 9 5 WSW 1017,0 10
24.10.2020 15:00:00 22,0 15,0 4 2 S - 10
24.10.2020 14:00:00 22,0 15,0 8 4 W - 10
24.10.2020 13:00:00 21,8 16,3 9 5 SW 1017,4 10
24.10.2020 12:00:00 22,0 14,0 15 8 W - 10
24.10.2020 11:00:00 22,0 16,0 11 6 WSW - 10
24.10.2020 10:00:00 20,2 16,7 8 4 S 1018,7 10
24.10.2020 09:00:00 18,0 16,0 13 7 SSE - 10
24.10.2020 08:00:00 15,0 15,0 9 5 SE - 8
24.10.2020 07:00:00 10,8 10,5 8 4 ESE 1018,9 6
24.10.2020 06:00:00 11,0 11,0 5 3 ESE - 7
24.10.2020 05:00:00 11,0 11,0 5 3 E - 10
24.10.2020 04:00:00 10,6 10,4 5 3 SE 1019,9 10
24.10.2020 03:00:00 11,0 11,0 5 3 SE - 10
24.10.2020 02:00:00 11,0 11,0 0 0 N - 10
24.10.2020 01:00:00 11,0 10,7 0 0 N 1020,9 10
24.10.2020 00:00:00 11,0 11,0 0 0 N - 10
23.10.2020 23:00:00 11,0 11,0 0 0 N - 10
23.10.2020 22:00:00 11,2 10,7 0 0 N 1021,4 10
23.10.2020 21:00:00 11,0 11,0 0 0 N - 10
23.10.2020 20:00:00 12,0 12,0 0 0 N - 10
23.10.2020 19:00:00 13,4 12,6 0 0 N 1021,3 10
23.10.2020 18:00:00 15,0 14,0 0 0 N - 10
23.10.2020 17:00:00 18,0 14,0 13 7 NE - 10
23.10.2020 16:00:00 20,4 13,4 9 5 N 1020,9 10
23.10.2020 15:00:00 21,0 13,0 4 2 - - 10
23.10.2020 14:00:00 21,0 14,0 8 4 ENE - 10
23.10.2020 13:00:00 20,2 13,9 13 7 NNE 1022,6 10
23.10.2020 12:00:00 20,0 14,0 11 6 NNE - 10
23.10.2020 11:00:00 19,0 14,0 9 5 N - 10
23.10.2020 10:00:00 18,2 14,3 11 6 N 1023,3 10
23.10.2020 09:00:00 15,0 15,0 5 3 NNW - 8
23.10.2020 08:00:00 12,0 12,0 2 1 - - 3,0
23.10.2020 07:00:00 6,0 6,0 4 2 N 1023,4 0,1
23.10.2020 06:00:00 6,0 6,0 2 1 - - 0,8
23.10.2020 05:00:00 6,0 6,0 0 0 N - 0,2
23.10.2020 04:00:00 7,0 7,0 0 0 N 1023,5 0,8
23.10.2020 03:00:00 8,0 8,0 2 1 - - 0,8
23.10.2020 02:00:00 8,0 8,0 4 2 - - 1,5
23.10.2020 01:00:00 10,0 10,0 4 2 N 1023,7 5
23.10.2020 00:00:00 10,0 10,0 5 3 - - 7
22.10.2020 23:00:00 10,0 10,0 4 2 - - 10
22.10.2020 22:00:00 11,0 11,0 4 2 N 1023,6 10
22.10.2020 21:00:00 11,0 11,0 5 3 - - 10
22.10.2020 20:00:00 12,0 11,0 4 2 - - 10
22.10.2020 19:00:00 13,4 11,8 5 3 N 1023,6 10
22.10.2020 18:00:00 15,0 11,0 8 4 N - 10
22.10.2020 17:00:00 18,0 11,0 9 5 N - 10
22.10.2020 16:00:00 19,6 9,8 13 7 N 1023,2 10
22.10.2020 15:00:00 20,0 10,0 16 9 N - 10
22.10.2020 14:00:00 21,0 10,0 15 8 NNE - 10
22.10.2020 13:00:00 21,4 13,3 13 7 NNW 1023,9 10
22.10.2020 12:00:00 21,0 12,0 11 6 N - 10
22.10.2020 11:00:00 20,0 10,0 9 5 NNW - 10
22.10.2020 10:00:00 19,0 12,0 11 6 N 1025,1 10
22.10.2020 09:00:00 17,0 14,0 5 3 N - 10
22.10.2020 08:00:00 13,0 13,0 5 3 NW - 10
22.10.2020 07:00:00 8,6 8,6 0 0 N 1024,7 5
22.10.2020 06:00:00 8,0 8,0 0 0 N - 3,0
22.10.2020 05:00:00 8,0 8,0 0 0 N - 1,5
22.10.2020 04:00:00 8,0 8,0 0 0 N 1024,7 0,8
22.10.2020 03:00:00 8,0 8,0 0 0 N - 3,0
22.10.2020 02:00:00 8,0 8,0 0 0 N - 5
22.10.2020 01:00:00 8,6 8,6 0 0 N 1024,7 10
22.10.2020 00:00:00 10,0 10,0 0 0 N - 10
21.10.2020 23:00:00 10,0 10,0 0 0 N - 10
21.10.2020 22:00:00 10,4 10,4 0 0 N 1024,6 10
21.10.2020 21:00:00 11,0 10,0 0 0 N - 10
21.10.2020 20:00:00 13,0 12,0 0 0 N - 10
21.10.2020 19:00:00 14,0 13,5 0 0 N 1024,4 10
21.10.2020 18:00:00 17,0 14,0 5 3 NNE - 10
21.10.2020 17:00:00 18,0 13,0 9 5 NE - 10
21.10.2020 16:00:00 20,0 13,2 11 6 NNE 1023,9 10
21.10.2020 15:00:00 21,0 13,0 13 7 N - 10
21.10.2020 14:00:00 21,0 13,0 13 7 N - 10
21.10.2020 13:00:00 21,0 13,4 16 9 NNE 1024,7 10
21.10.2020 12:00:00 21,0 14,0 15 8 N - 10
21.10.2020 11:00:00 20,0 14,0 13 7 N - 10
21.10.2020 10:00:00 19,2 13,2 18 10 NNW 1025,2 10
21.10.2020 09:00:00 18,0 14,0 16 9 NW - 10
21.10.2020 08:00:00 15,0 13,0 13 7 NW - 10
21.10.2020 07:00:00 9,0 8,9 5 3 NW 1025,0 10
21.10.2020 06:00:00 9,0 9,0 5 3 NW - 10
21.10.2020 05:00:00 9,0 9,0 8 4 NW - 10
21.10.2020 04:00:00 8,8 8,8 4 2 N 1024,0 10
21.10.2020 03:00:00 9,0 8,0 2 1 SW - 10
21.10.2020 02:00:00 10,0 10,0 2 1 NNW - 10
21.10.2020 01:00:00 10,0 9,9 4 2 NNW 1025,7 10
21.10.2020 00:00:00 11,0 10,0 5 3 NW - 10
20.10.2020 23:00:00 11,0 11,0 5 3 NNW - 10
20.10.2020 22:00:00 10,8 10,7 5 3 N 1025,6 10

tt = temperature
td = dewpoint
ff = wind speed
dd = wind direction
ppp = reduced air pressure
vv = visibility

Next stations